EW1898 Weather Reports


time (UTC)temp
C
wind
direction
speed
KPH
gust
KPH
rain 1hr
cm
rain 24hr
cm
rain mn
cm
humidity
%
barometer
mb
20260502211559 9 297 0.0 4.8 0.08 0.36 0.36 89 1010.1
20260502210106 10 298 0.0 1.6 0.00 0.28 0.28 84 1009.9
20260502204609 10 299 1.6 6.4 0.00 0.28 0.28 82 1009.7
20260502203111 10 295 0.0 3.2 0.00 0.28 0.28 81 1009.7
20260502201557 10 290 0.0 3.2 0.00 0.28 0.28 82 1009.7
20260502200055 10 297 0.0 6.4 0.00 0.28 0.28 78 1010.0
20260502194557 11 301 3.2 11.3 0.00 0.28 0.28 77 1009.8
20260502193054 12 302 6.4 16.1 0.00 0.28 0.28 67 1009.8
20260502191608 13 284 0.0 4.8 0.00 0.28 0.28 62 1009.8
20260502190104 13 47 0.0 4.8 0.00 0.28 0.28 62 1009.8
20260502184551 14 203 0.0 6.4 0.00 0.28 0.28 58 1010.0
20260502183058 13 213 0.0 6.4 0.00 0.28 0.28 61 1010.1
20260502181547 14 260 1.6 6.4 0.00 0.28 0.28 66 1010.2
20260502163049 11 99 0.0 4.8 0.00 0.28 0.28 82 1011.1
20260502161528 10 298 1.6 8.0 0.00 0.28 0.28 83 1011.4
20260502160128 10 276 0.0 1.6 0.00 0.28 0.28 87 1011.6
20260502151518 8 299 0.0 4.8 0.00 0.28 0.28 91 1011.5
20260502123011 6 302 0.0 1.6 0.10 0.15 0.15 94 1012.5
20260502121509 6 302 0.0 0.0 0.10 0.13 0.13 94 1012.3
20260502114508 6 303 0.0 3.2 0.05 0.08 0.08 94 1012.6
20260502113007 6 292 0.0 1.6 0.03 0.05 0.05 92 1012.7
20260502111502 6 279 0.0 1.6 0.00 0.03 0.03 92 1011.7
20260502110003 6 279 0.0 1.6 0.00 0.03 0.03 91 1011.3
20260502104500 6 279 0.0 1.6 0.03 0.03 0.03 90 1011.4
20260502103102 6 279 0.0 0.0 0.03 0.03 0.03 89 1011.2
20260502101605 6 279 0.0 1.6 0.03 0.03 0.03 87 1011.4
20260502070049 7 295 0.0 3.2 0.00 0.00 0.00 74 1011.1
20260502064545 7 253 0.0 1.6 0.00 0.00 0.00 72 1011.4
20260502063041 7 253 0.0 1.6 0.00 0.00 0.00 72 1011.1
20260502061537 7 253 0.0 1.6 0.00 0.00 0.00 72 1011.0
20260502060033 8 253 0.0 1.6 0.00 0.00 0.00 67 1011.1
20260502054530 8 253 0.0 1.6 0.00 0.00 0.00 61 1011.0
20260502053029 8 253 0.0 1.6 0.00 0.00 0.00 59 1011.1
20260502051530 8 253 0.0 3.2 0.00 0.00 0.00 58 1011.1
20260502050032 8 254 0.0 1.6 0.00 0.00 0.00 58 1011.1
20260502044523 9 254 0.0 0.0 0.00 0.00 0.00 59 1011.4
20260502043023 9 254 0.0 0.0 0.00 0.00 0.00 59 1011.6
20260502041521 9 295 0.0 1.6 0.00 0.00 0.00 61 1011.4
20260502040017 9 295 0.0 0.0 0.00 0.00 0.00 64 1011.2
20260502034530 9 295 0.0 0.0 0.00 0.00 0.00 62 1011.2
20260502033016 10 295 0.0 1.6 0.00 0.00 0.00 58 1011.2
20260502031515 10 295 0.0 1.6 0.00 0.00 0.00 52 1011.0
20260502030014 10 295 0.0 1.6 0.00 0.00 0.00 51 1011.0
20260502024517 9 295 0.0 1.6 0.00 0.00 0.00 51 1011.0
20260502023014 10 295 0.0 1.6 0.00 0.00 0.00 53 1011.1
20260502021512 10 295 0.0 1.6 0.00 0.00 0.00 50 1011.0
20260502020011 10 295 0.0 1.6 0.00 0.00 0.00 48 1011.1
20260502014528 10 295 0.0 1.6 0.00 0.00 0.00 46 1011.0
20260502013010 10 295 0.0 0.0 0.00 0.00 0.00 46 1011.0
20260502011509 11 295 0.0 0.0 0.00 0.00 0.00 44 1010.9
20260502010010 11 295 0.0 1.6 0.00 0.00 0.00 46 1010.8
20260502004506 11 295 0.0 1.6 0.00 0.00 0.00 46 1010.6
20260502003004 11 295 0.0 1.6 0.00 0.00 0.00 44 1010.5
20260502001508 12 295 0.0 1.6 0.00 0.00 0.00 43 1010.2
20260502000010 12 295 0.0 1.6 0.00 0.00 0.00 41 1010.0
20260501234501 13 295 0.0 0.0 0.00 0.00 0.00 37 1009.8
20260501233103 15 295 0.0 3.2 0.00 0.00 0.00 35 1009.5
20260501231601 15 295 0.0 6.4 0.00 0.00 0.00 32 1009.3
20260501230105 16 292 0.0 6.4 0.00 0.00 0.00 32 1009.2
20260501224555 15 277 4.8 14.5 0.00 0.00 0.00 32 1009.2
20260501223100 15 279 0.0 14.5 0.00 0.00 0.00 33 1009.0
20260501221601 16 328 3.2 11.3 0.00 0.00 0.00 31 1009.0
20260501220056 16 324 1.6 14.5 0.00 0.00 0.00 33 1008.9
20260501214552 16 281 1.6 11.3 0.00 0.00 0.00 32 1008.9
20260501213051 15 276 6.4 17.7 0.00 0.00 0.00 33 1008.8